Location: *
(41.0833°N, 73.4167°W)
Time: 14:37:41
(UTC+00:00)

NOSS 3-4 (C) - Pass Details

Date: 22 October 2019
Orbit: 908 x 1304 km, 63.4° (Epoch: 10 November)

Event Time Altitude Azimuth Distance (km) Brightness Sun altitude
Exits shadow 09:05:24 49° 304° (WNW) 1,187 3.6 -24.6°
Maximum altitude 09:05:39 50° 312° (NW) 1,185 3.6 -24.6°
Drops below altitude 10° 09:11:49 10° 27° (NNE) 2,747 6.2 -23.4°
Sets 09:14:36 0° 33° (NNE) 3,752 7.1 -22.9°
